Regional Weather Roundup
Issued by NWS

Home | Current Version | Previous Version | Text Only | Print | Product List | Glossary On
Versions: 1 2 3 4 5 6 7 8 9 10 11 12 13 14 15 16 17 18 19 20 21 22 23 24 25 26 27 28 29 30 31 32 33 34 35 36 37 38 39 40 41 42 43 44 45 46 47 48 49 50
000
ASCA42 TJSJ 241710
RWRPR
PUERTO RICO/U.S. VIRGIN ISLANDS HOURLY WEATHER ROUNDUP
NATIONAL WEATHER SERVICE SAN JUAN PR
100 PM AST FRI FEB 24 2017

PRZ001>002-007>008-010-241800-
PUERTO RICO

CITY           SKY/WX    TMP DP  RH WIND       PRES   REMARKS
SAN JUAN LMM   MOSUNNY   88  66  48 S8        29.92F HX  90
AGUADILLA      MOSUNNY   82  70  65 NE9       29.94F
CEIBA          MOSUNNY   88  70  55 S14G22    29.97F HX  92
$$

VIZ001>002-241800-
U.S. VIRGIN ISLANDS

CITY           SKY/WX    TMP DP  RH WIND       PRES   REMARKS
CHARLOTTE AMA  MOSUNNY   82  70  65 SE9       29.95F
CHRISTIANSTED  MOSUNNY   84  68  58 SE8       29.97F
$$

HOURLY WEATHER ROUNDUP FOR THE NEWS MEDIA

CITY           SKY/WX    TMP DP  RH WIND       PRES   REMARKS
ORLANDO        PTSUNNY   78  65  63 NE7       29.83F
NEW YORK       MOSUNNY   59  51  75 S10       29.96F
NEWARK         MOSUNNY   72  54  53 S13       29.91F
CHICAGO        LGT RAIN  39  36  89 N14       29.47S FOG     WCI  31
HARTFORD       SUNNY     68  52  56 SW18      29.96F
BOSTON         PTSUNNY   67  54  63 S12       29.91F
DALLAS         MOSUNNY   54  36  50 NW16      29.88R
PHILADELPHIA   MOSUNNY   72  54  53 SW14      29.92F
LOS ANGELES    MOSUNNY   53  30  41 VRB5      30.19R
WASHINGTON DC  MOSUNNY   74  53  48 S14G26    29.88F


USA.gov is the U.S. government's official web portal to all federal, state and local government web resources and services.